GW2492 Weather Reports


time (UTC)temp
C
wind
direction
speed
KPH
gust
KPH
rain 1hr
cm
rain 24hr
cm
rain mn
cm
humidity
%
barometer
mb
20260506104548 12 42 9.7 25.7 0.00 0.00 0.00 81 1011.1
20260506103045 13 30 17.7 25.7 0.00 0.00 0.00 80 1011.1
20260506101605 13 65 19.3 27.4 0.00 0.00 0.00 80 1011.4
20260506100044 13 26 19.3 27.4 0.00 0.00 0.00 79 1011.0
20260506094540 14 50 19.3 30.6 0.00 0.00 0.00 79 1011.0
20260506093046 14 22 17.7 22.5 0.00 0.00 0.00 79 1010.8
20260506091546 14 31 17.7 24.1 0.00 0.00 0.00 78 1010.1
20260506090058 15 27 12.9 24.1 0.00 0.00 0.00 78 1009.8
20260506084545 15 32 16.1 22.5 0.00 0.00 0.00 78 1009.8
20260506083040 16 34 14.5 22.5 0.00 0.00 0.00 77 1010.2
20260506081548 16 32 14.5 20.9 0.00 0.00 0.00 77 1010.3
20260506073042 17 42 9.7 19.3 0.00 0.00 0.00 76 1010.2
20260506071548 17 46 6.4 16.1 0.00 0.00 0.00 76 1010.4
20260506061548 19 94 8.0 16.1 0.00 0.00 0.00 71 1009.4
20260506050103 23 51 12.9 27.4 0.00 0.00 0.00 55 1009.3
20260506044544 25 49 1.6 4.8 0.00 0.00 0.00 39 1009.0
20260506043046 25 71 1.6 6.4 0.00 0.00 0.00 39 1008.7
20260506041558 25 57 4.8 11.3 0.00 0.00 0.00 39 1008.8
20260506040045 25 76 1.6 6.4 0.00 0.00 0.00 39 1008.8
20260506034550 25 65 3.2 6.4 0.00 0.00 0.00 37 1008.7
20260506033041 25 355 4.8 8.0 0.00 0.00 0.00 37 1008.8
20260506031545 26 13 6.4 11.3 0.00 0.00 0.00 35 1008.4
20260506030044 26 13 4.8 8.0 0.00 0.00 0.00 34 1008.3
20260506024556 26 5 1.6 4.8 0.00 0.00 0.00 34 1008.1
20260506023113 26 0 0.0 0.0 0.00 0.00 0.00 33 1008.1
20260506021548 26 0 0.0 4.8 0.00 0.00 0.00 33 1007.9
20260506020052 26 300 3.2 9.7 0.00 0.00 0.00 34 1007.6
20260506014545 27 296 4.8 12.9 0.00 0.00 0.00 34 1007.6
20260506013052 28 302 8.0 16.1 0.00 0.00 0.00 34 1007.3
20260506011546 29 267 8.0 16.1 0.00 0.00 0.00 34 1007.0
20260506010049 29 255 6.4 11.3 0.00 0.00 0.00 34 1007.0
20260506004544 30 258 8.0 12.9 0.00 0.00 0.00 32 1006.7
20260506003044 30 254 11.3 16.1 0.00 0.00 0.00 28 1006.6
20260506001552 31 263 11.3 16.1 0.00 0.00 0.00 28 1006.5
20260506000047 31 252 11.3 17.7 0.00 0.00 0.00 30 1006.4
20260505234541 31 232 12.9 17.7 0.00 0.00 0.00 27 1006.3
20260505233048 31 265 16.1 24.1 0.00 0.00 0.00 25 1006.4
20260505231547 32 254 19.3 27.4 0.00 0.00 0.00 25 1006.5
20260505230110 32 264 14.5 22.5 0.00 0.00 0.00 25 1006.5
20260505224545 32 257 16.1 24.1 0.00 0.00 0.00 25 1006.7
20260505223048 32 259 16.1 30.6 0.00 0.00 0.00 26 1006.6
20260505221554 32 259 17.7 24.1 0.00 0.00 0.00 26 1006.5
20260505220053 32 266 16.1 25.7 0.00 0.00 0.00 26 1006.5
20260505214542 32 304 6.4 20.9 0.00 0.00 0.00 28 1006.6
20260505213047 32 263 12.9 27.4 0.00 0.00 0.00 28 1006.6
20260505211557 32 253 17.7 29.0 0.00 0.00 0.00 26 1006.7
20260505210044 33 282 14.5 27.4 0.00 0.00 0.00 30 1007.0
20260505204541 32 271 11.3 24.1 0.00 0.00 0.00 32 1007.1
20260505203042 32 254 14.5 30.6 0.00 0.00 0.00 29 1007.2
20260505201549 32 254 8.0 29.0 0.00 0.00 0.00 34 1007.2
20260505200048 32 273 9.7 24.1 0.00 0.00 0.00 35 1007.4
20260505194547 31 261 17.7 25.7 0.00 0.00 0.00 33 1007.5
20260505193057 31 279 16.1 30.6 0.00 0.00 0.00 33 1007.5
20260505191544 31 276 11.3 27.4 0.00 0.00 0.00 39 1007.7
20260505190043 31 312 17.7 29.0 0.00 0.00 0.00 36 1007.9
20260505184548 30 286 16.1 25.7 0.00 0.00 0.00 41 1008.0
20260505183047 30 265 9.7 27.4 0.00 0.00 0.00 48 1008.1
20260505181554 29 281 22.5 33.8 0.00 0.00 0.00 49 1008.2
20260505180041 28 254 24.1 37.0 0.00 0.00 0.00 51 1008.3
20260505174548 28 270 14.5 33.8 0.00 0.00 0.00 52 1008.4
20260505173044 28 257 16.1 33.8 0.00 0.00 0.00 54 1008.6
20260505171543 27 277 19.3 32.2 0.00 0.00 0.00 57 1008.6
20260505170042 27 233 22.5 27.4 0.00 0.00 0.00 62 1008.7
20260505164550 26 232 20.9 30.6 0.00 0.00 0.00 66 1008.7
20260505163045 25 229 22.5 33.8 0.00 0.00 0.00 68 1008.6
20260505161546 25 227 24.1 33.8 0.00 0.00 0.00 72 1008.5
20260505153045 23 223 22.5 32.2 0.00 0.00 0.00 77 1008.5
20260505151545 23 228 24.1 35.4 0.00 0.00 0.00 77 1008.3
20260505124549 20 204 32.2 41.8 0.00 0.00 0.00 87 1007.4
20260505123042 19 221 29.0 38.6 0.00 0.00 0.00 87 1007.3
20260505121543 19 215 27.4 38.6 0.00 0.00 0.00 87 1007.1
20260505120046 19 223 24.1 37.0 0.00 0.00 0.00 86 1007.1
20260505114549 19 221 25.7 38.6 0.00 0.00 0.00 86 1006.9
20260505113042 19 221 27.4 35.4 0.00 0.00 0.00 85 1006.7
20260505111546 20 234 27.4 38.6 0.00 0.00 0.00 85 1006.7